TimeCST,TemperatureF,Dew PointF,Humidity,Sea Level PressureIn,VisibilityMPH,Wind Direction,Wind SpeedMPH,Gust SpeedMPH,PrecipitationIn,Events,Conditions,WindDirDegrees,DateUTC
6:00 AM,69,67,90,29.91,12,ENE,3.5,,,,Scattered Clouds,70,2013-11-04 12:00:00
6:00 AM,68.0,66.2,94,29.90,6.2,ENE,3.5,-,N/A,,Mostly Cloudy,70,2013-11-04 12:00:00
7:00 AM,73.4,69.8,88,29.91,6.2,NNE,3.5,-,N/A,,Mostly Cloudy,30,2013-11-04 13:00:00
8:00 AM,77.0,69.8,78,29.92,6.2,NNE,3.5,-,N/A,,Mostly Cloudy,30,2013-11-04 14:00:00
9:00 AM,82,73,67,29.94,12,SSW,3.5,,,,Scattered Clouds,210,2013-11-04 15:00:00
9:00 AM,82.4,73.4,74,29.93,6.2,SSW,3.5,-,N/A,,Mostly Cloudy,210,2013-11-04 15:00:00
10:00 AM,82.4,71.6,70,29.91,6.2,WNW,4.6,-,N/A,,Scattered Clouds,290,2013-11-04 16:00:00
11:00 AM,82.4,71.6,70,29.89,6.2,West,9.2,-,N/A,,Mostly Cloudy,270,2013-11-04 17:00:00
12:00 PM,80,74,77,29.90,12,West,9.2,,,,Overcast,280,2013-11-04 18:00:00
12:00 PM,80.6,73.4,79,29.88,6.2,West,9.2,-,N/A,,Mostly Cloudy,280,2013-11-04 18:00:00
1:00 PM,82.4,73.4,74,29.86,6.2,WNW,10.4,-,N/A,,Mostly Cloudy,290,2013-11-04 19:00:00
2:00 PM,82.4,71.6,70,29.83,6.2,WNW,12.7,-,N/A,,Mostly Cloudy,300,2013-11-04 20:00:00
3:00 PM,81,73,70,29.83,12,West,10.4,,,,Overcast,280,2013-11-04 21:00:00
3:00 PM,80.6,73.4,79,29.81,6.2,West,10.4,-,N/A,,Overcast,280,2013-11-04 21:00:00
4:00 PM,80.6,73.4,79,29.81,6.2,WNW,9.2,-,N/A,,Mostly Cloudy,300,2013-11-04 22:00:00
5:00 PM,78.8,73.4,83,29.82,6.2,WNW,6.9,-,N/A,,Mostly Cloudy,290,2013-11-04 23:00:00
6:00 PM,78,71,73,29.84,12,NW,2.3,,,,Overcast,310,2013-11-05 00:00:00
6:00 PM,77.0,71.6,83,29.83,6.2,NW,2.3,-,N/A,,Overcast,310,2013-11-05 00:00:00
7:00 PM,77.0,71.6,83,29.85,6.2,Calm,Calm,-,N/A,,Overcast,0,2013-11-05 01:00:00
8:00 PM,77.0,71.6,83,29.86,-9999.0,WNW,2.3,-,N/A,,Clear,300,2013-11-05 02:00:00